Location: Falniów
(50.3639°N, 19.9642°E)
Time: 20:00:44
(UTC+00:00)

Cosmos 1763 Rocket - Pass Details

Date: 18 January 2026
Orbit: 729 x 773 km, 74.0° (Epoch: 14 February)

Event Time Altitude Azimuth Distance (km) Brightness Sun altitude
Exits shadow 04:30:56 17° 336° (NNW) 1,801 5.1 -18.7°
Maximum altitude 04:34:52 89° 254° (WSW) 740 3.3 -18.1°
Drops below altitude 10° 04:39:57 10° 158° (SSE) 2,239 6.4 -17.3°
Sets 04:42:18 0° 158° (SSE) 3,164 7.2 -17.0°
